ROMMA est une association bénévole à but non lucratif. Votre soutien est indispensable : ADHERER à ROMMA ou FAIRE un DON

Crest - (26, Drôme)

Vallée de la Drôme (315 m)   Longitude: 5°2' E   Latitude: 44°44' N Station partenaire n°62
 

Détail journalier du     <<     >>

Température Precipitation Humidité Pression Vent Dir Rafale Dir. rafale Ensol.
Heure (°C) (mm) (%) (hPa) (km/h) (km/h) (min)
01:00 2.708110243SSE11SE0
02:00 2.708310242SSE8SE0
03:00 2.708110231SSE5SSE0
04:00 2.908010232SSE6SSO0
05:00 4.107510232SSE5SSE0
06:00 4.107610232SE8SE0
07:00 4.807310233S10SE0
08:00 5.307010233SE10SE0
09:00 5.507310233ESE13ESE0
10:00 5.10.38210237ESE18ESE0
11:00 5.508410245ESE19ESE0
12:00 5.808810237ESE18ESE0
13:00 7.108510228ESE21ESE2
14:00 7.708510226ESE21ESE0
15:00 8.308210227ESE15ESE0
16:00 8.508410224ESE13SE2
17:00 8.008510222SE5SE20
18:00 8.408610231---6SE0
19:00 7.108810232SE8SE0
20:00 6.309010232SE6SE0
21:00 5.609210241---6SE0
22:00 5.8092102406SSE0
23:00 5.409410241SE5S0
minuit 5.20.39510243SE8SE0

Graphique du 24-12-2019

 

Serveur OMMA